K5PCJ Weather Reports


time (UTC)temp
F
wind
direction
speed
knots
gust
knots
rain 1hr
in
rain 24hr
in
rain mn
in
humidity
%
barometer
mb
20260505041556 72 338 0.9 3.5 0.00 0.00 0.00 81 1011.3
20260505041044 72 330 1.7 3.5 0.00 0.00 0.00 81 1011.5
20260505040544 72 50 0.9 3.5 0.00 0.00 0.00 81 1011.4
20260505040055 73 8 0.9 3.5 0.00 0.00 0.00 81 1011.3
20260505035545 72 341 1.7 4.3 0.00 0.00 0.00 81 1011.3
20260505035048 72 297 1.7 4.3 0.00 0.00 0.00 81 1011.3
20260505034558 72 356 0.9 2.6 0.00 0.00 0.00 82 1011.4
20260505034049 72 22 0.9 2.6 0.00 0.00 0.00 82 1011.6
20260505033546 72 31 0.0 2.6 0.00 0.00 0.00 82 1011.7
20260505033056 72 6 0.0 0.9 0.00 0.00 0.00 83 1011.7
20260505032544 72 0 0.0 1.7 0.00 0.00 0.00 82 1011.6
20260505032046 72 352 0.0 1.7 0.00 0.00 0.00 82 1011.7
20260505031603 72 34 0.0 0.9 0.00 0.00 0.00 82 1011.6
20260505031045 72 0 0.0 1.7 0.00 0.00 0.00 82 1011.6
20260505030545 72 0 0.0 1.7 0.00 0.00 0.00 81 1011.5
20260505030103 72 94 0.0 1.7 0.00 0.00 0.00 81 1011.4
20260505025546 72 15 0.0 1.7 0.00 0.00 0.00 81 1011.5
20260505025045 72 18 0.0 1.7 0.00 0.00 0.00 81 1011.5
20260505024603 72 0 0.0 0.9 0.00 0.00 0.00 81 1011.6
20260505024045 72 0 0.0 0.9 0.00 0.00 0.00 81 1011.5
20260505023545 72 45 0.0 1.7 0.00 0.00 0.00 81 1011.5
20260505023059 72 51 0.0 1.7 0.00 0.00 0.00 81 1011.6
20260505022545 72 53 0.0 1.7 0.00 0.00 0.00 81 1011.5
20260505022045 72 135 0.0 2.6 0.00 0.00 0.00 81 1011.5
20260505021559 72 0 0.0 2.6 0.00 0.00 0.00 81 1011.5
20260505021044 72 7 0.0 1.7 0.00 0.00 0.00 81 1011.5
20260505020542 72 0 0.0 1.7 0.00 0.00 0.00 81 1011.5
20260505020053 72 360 0.0 0.9 0.00 0.00 0.00 80 1011.4
20260505015550 72 356 0.0 2.6 0.00 0.00 0.00 80 1011.2
20260505015046 72 27 0.0 2.6 0.00 0.00 0.00 80 1011.1
20260505014608 72 40 0.0 1.7 0.00 0.00 0.00 80 1011.0
20260505014047 72 23 0.0 1.7 0.00 0.00 0.00 80 1010.9
20260505013543 72 18 0.0 1.7 0.00 0.00 0.00 79 1011.0
20260505013049 72 38 0.0 2.6 0.00 0.00 0.00 79 1011.0
20260505012543 72 14 0.0 2.6 0.00 0.00 0.00 78 1011.0
20260505012045 73 339 0.9 1.7 0.00 0.00 0.00 78 1011.1
20260505011556 73 0 0.9 1.7 0.00 0.00 0.00 78 1011.1
20260505011044 73 0 0.0 1.7 0.00 0.00 0.00 78 1011.0
20260505010540 73 25 0.0 1.7 0.00 0.00 0.00 77 1011.0
20260505010048 73 8 0.9 1.7 0.00 0.00 0.00 77 1011.1
20260505005544 74 28 0.0 1.7 0.00 0.00 0.00 76 1011.1
20260505005047 74 30 0.0 3.5 0.00 0.00 0.00 76 1010.9
20260505004547 74 44 0.0 3.5 0.00 0.00 0.00 75 1010.8
20260505004043 74 9 0.9 3.5 0.00 0.00 0.00 75 1010.8
20260505003543 74 338 0.9 3.5 0.00 0.00 0.00 75 1010.8
20260505003049 74 39 0.0 2.6 0.00 0.00 0.00 75 1010.9
20260505002540 75 349 0.9 3.5 0.00 0.00 0.00 75 1010.9
20260505002046 75 316 0.9 3.5 0.00 0.00 0.00 74 1011.0
20260505001545 75 357 0.9 2.6 0.00 0.00 0.00 75 1011.0
20260505001045 75 304 0.0 2.6 0.00 0.00 0.00 75 1011.1
20260505000540 75 356 0.9 3.5 0.00 0.00 0.00 74 1011.1
20260504235540 75 25 0.9 3.5 0.00 0.00 0.00 74 1011.1
20260504235040 75 355 0.9 3.5 0.00 0.00 0.00 74 1011.1
20260504234550 76 289 0.0 2.6 0.00 0.00 0.00 74 1011.1
20260504234043 76 18 0.9 2.6 0.00 0.00 0.00 73 1011.1
20260504233543 76 0 0.0 3.5 0.00 0.00 0.00 74 1011.1
20260504233105 76 46 0.0 3.5 0.00 0.00 0.00 73 1011.2
20260504232544 76 337 0.9 3.5 0.00 0.00 0.00 72 1011.2
20260504232044 76 345 0.0 3.5 0.00 0.00 0.00 72 1011.3
20260504231548 77 0 0.9 2.6 0.00 0.00 0.00 72 1011.5
20260504231041 77 359 0.0 2.6 0.00 0.00 0.00 71 1011.4
20260504230540 77 36 0.9 3.5 0.00 0.00 0.00 70 1011.5
20260504230050 78 34 0.9 3.5 0.00 0.00 0.00 70 1011.4
20260504225541 78 30 0.9 3.5 0.00 0.00 0.00 69 1011.4
20260504225042 78 356 0.9 2.6 0.00 0.00 0.00 69 1011.4
20260504224553 77 325 0.0 3.5 0.00 0.00 0.00 70 1011.6
20260504224044 77 326 0.9 3.5 0.00 0.00 0.00 70 1011.7
20260504223544 77 335 0.9 3.5 0.00 0.00 0.00 69 1011.7
20260504223110 78 45 0.9 3.5 0.00 0.00 0.00 68 1011.8
20260504222544 78 353 0.9 3.5 0.00 0.00 0.00 68 1011.9
20260504222043 79 0 0.9 2.6 0.00 0.00 0.00 68 1012.0
20260504221556 79 0 0.9 2.6 0.00 0.00 0.00 67 1011.9
20260504221046 79 6 0.9 2.6 0.00 0.00 0.00 66 1011.8
20260504220544 80 338 0.9 3.5 0.00 0.00 0.00 66 1011.9
20260504220057 80 335 1.7 3.5 0.00 0.00 0.00 65 1011.8
20260504215544 80 323 0.9 3.5 0.00 0.00 0.00 64 1012.0
20260504215045 81 359 0.9 7.0 0.00 0.00 0.00 64 1012.0
20260504214552 82 26 0.9 7.0 0.00 0.00 0.00 62 1012.0
20260504214048 82 331 1.7 3.5 0.00 0.00 0.00 63 1012.1
20260504213540 82 348 0.9 3.5 0.00 0.00 0.00 63 1012.0
20260504213105 82 51 1.7 3.5 0.00 0.00 0.00 62 1012.0
20260504212544 82 18 0.9 3.5 0.00 0.00 0.00 62 1012.2
20260504212040 83 23 0.9 2.6 0.00 0.00 0.00 62 1012.3
20260504211553 82 0 0.0 3.5 0.00 0.00 0.00 62 1012.4
20260504211044 83 0 0.9 3.5 0.00 0.00 0.00 60 1012.3
20260504210546 83 360 0.9 3.5 0.00 0.00 0.00 59 1012.3
20260504210058 84 73 0.9 3.5 0.00 0.00 0.00 58 1012.5
20260504205544 84 22 0.9 3.5 0.00 0.00 0.00 59 1012.6
20260504205047 84 0 0.9 2.6 0.00 0.00 0.00 59 1012.7
20260504204549 83 19 0.9 4.3 0.00 0.00 0.00 58 1012.7
20260504204043 83 345 0.9 4.3 0.00 0.00 0.00 60 1012.6
20260504203540 83 332 0.9 3.5 0.00 0.00 0.00 60 1012.8
20260504203105 82 1 0.9 2.6 0.00 0.00 0.00 61 1012.9
20260504202540 82 353 0.9 4.3 0.00 0.00 0.00 58 1013.0
20260504202043 82 30 0.9 4.3 0.00 0.00 0.00 59 1013.0
20260504201554 82 53 1.7 4.3 0.00 0.00 0.00 56 1013.1
20260504201044 83 327 0.9 3.5 0.00 0.00 0.00 57 1013.1
20260504200544 83 359 0.9 3.5 0.00 0.00 0.00 58 1013.2
20260504200056 83 360 0.9 3.5 0.00 0.00 0.00 57 1013.4
20260504195544 83 11 0.9 3.5 0.00 0.00 0.00 57 1013.4
20260504195044 83 5 0.9 3.5 0.00 0.00 0.00 56 1013.4
20260504194622 82 349 0.9 3.5 0.00 0.00 0.00 57 1013.6
20260504194551 82 349 0.9 3.5 0.00 0.00 0.00 57 1013.6
20260504194047 83 264 0.9 3.5 0.00 0.00 0.00 56 1013.7
20260504193547 83 339 0.9 3.5 0.00 0.00 0.00 56 1013.7
20260504193054 82 44 0.9 2.6 0.00 0.00 0.00 57 1013.7
20260504192543 82 340 0.9 2.6 0.00 0.00 0.00 59 1013.8
20260504192044 81 66 0.9 2.6 0.00 0.00 0.00 58 1013.8
20260504191554 82 359 0.9 3.5 0.00 0.00 0.00 57 1014.1
20260504191043 82 3 0.9 3.5 0.00 0.00 0.00 59 1014.1
20260504190543 82 355 0.9 3.5 0.00 0.00 0.00 58 1014.1
20260504190053 81 340 0.9 3.5 0.00 0.00 0.00 59 1014.3
20260504185544 81 103 0.9 2.6 0.00 0.00 0.00 59 1014.2
20260504185043 81 349 0.9 2.6 0.00 0.00 0.00 59 1014.3
20260504184545 81 358 0.9 2.6 0.00 0.00 0.00 59 1014.4
20260504184043 80 3 0.9 3.5 0.00 0.00 0.00 59 1014.4
20260504183542 81 19 0.9 3.5 0.00 0.00 0.00 56 1014.4
20260504183041 81 0 0.9 4.3 0.00 0.00 0.00 57 1014.5
20260504182546 81 0 0.9 4.3 0.00 0.00 0.00 56 1014.5
20260504182042 82 265 0.9 4.3 0.00 0.00 0.00 52 1014.5
20260504181549 83 299 0.9 4.3 0.00 0.00 0.00 54 1014.7
20260504181044 83 74 1.7 4.3 0.00 0.00 0.00 55 1014.7
20260504180544 82 9 1.7 7.0 0.00 0.00 0.00 52 1014.7
20260504180051 82 13 1.7 7.0 0.00 0.00 0.00 56 1014.9
20260504175545 82 15 1.7 5.2 0.00 0.00 0.00 55 1015.0
20260504175044 82 8 0.9 4.3 0.00 0.00 0.00 57 1015.1
20260504174549 81 12 0.9 4.3 0.00 0.00 0.00 58 1015.1
20260504174045 81 323 0.9 4.3 0.00 0.00 0.00 57 1015.2
20260504173544 82 352 0.9 3.5 0.00 0.00 0.00 58 1015.1
20260504173055 81 360 0.9 3.5 0.00 0.00 0.00 57 1015.3
20260504172544 81 348 0.9 3.5 0.00 0.00 0.00 57 1015.4
20260504172044 81 32 1.7 4.3 0.00 0.00 0.00 58 1015.5
20260504171555 81 323 0.9 4.3 0.00 0.00 0.00 58 1015.5
20260504171045 80 359 0.9 4.3 0.00 0.00 0.00 59 1015.5
20260504170545 80 350 1.7 4.3 0.00 0.00 0.00 57 1015.7
20260504151046 75 33 0.9 3.5 0.00 0.00 0.00 64 1016.4
20260504150544 75 336 0.9 4.3 0.00 0.00 0.00 66 1016.5
20260504141044 68 45 0.0 3.5 0.00 0.00 0.00 77 1016.2
20260504140545 67 155 0.0 3.5 0.00 0.00 0.00 80 1016.2
20260504130540 57 0 0.0 0.0 0.00 0.00 0.00 94 1016.6
20260504110545 55 0 0.0 0.0 0.00 0.00 0.00 92 1016.0
20260504100545 55 0 0.0 0.0 0.00 0.00 0.00 91 1016.2
20260504081550 57 0 0.0 0.0 0.00 0.00 0.00 89 1016.6
20260504081045 57 0 0.0 0.0 0.00 0.00 0.00 89 1016.8
20260504080544 57 0 0.0 0.0 0.00 0.00 0.00 89 1016.9
20260504050543 59 0 0.0 0.0 0.00 0.00 0.00 86 1018.4